www.pogodaiklimat.ru
ПОГОДА в Любляна аэропорту
Время
(UTC), дата
10 11.06
11 11.06
12 11.06
13 11.06
14 11.06
15 11.06
16 11.06
17 11.06
18 11.06
19 11.06
20 11.06
21 11.06
22 11.06
23 11.06
00 12.06
01 12.06
02 12.06
03 12.06
04 12.06
05 12.06
06 12.06
07 12.06
08 12.06
09 12.06
10 12.06
11 12.06
12 12.06
13 12.06
14 12.06
15 12.06
16 12.06
17 12.06
18 12.06
19 12.06
20 12.06
21 12.06
22 12.06
23 12.06
00 13.06
01 13.06
02 13.06
03 13.06
04 13.06
05 13.06
06 13.06
07 13.06
08 13.06
09 13.06
10 13.06
11 13.06
12 13.06
13 13.06
14 13.06
15 13.06
16 13.06
17 13.06
18 13.06
19 13.06
20 13.06
21 13.06
22 13.06
23 13.06
00 14.06
01 14.06
02 14.06
03 14.06
04 14.06
05 14.06
06 14.06
07 14.06
08 14.06
09 14.06
10 14.06
11 14.06
12 14.06
13 14.06
14 14.06
15 14.06
16 14.06
17 14.06
18 14.06
19 14.06
20 14.06
21 14.06
22 14.06
00 15.06
01 15.06
02 15.06
03 15.06
04 15.06
05 15.06
06 15.06
07 15.06
08 15.06
09 15.06
10 15.06
11 15.06
12 15.06
13 15.06
14 15.06
15 15.06
16 15.06
17 15.06
18 15.06
19 15.06
20 15.06
21 15.06
22 15.06
23 15.06
00 16.06
01 16.06
02 16.06
03 16.06
04 16.06
05 16.06
06 16.06
07 16.06
08 16.06
09 16.06
10 16.06
11 16.06
12 16.06
13 16.06
14 16.06
15 16.06
16 16.06
17 16.06
18 16.06
19 16.06
20 16.06
21 16.06
22 16.06
23 16.06
00 17.06
01 17.06
02 17.06
03 17.06
04 17.06
05 17.06
06 17.06
07 17.06
08 17.06
09 17.06
10 17.06
11 17.06
12 17.06
13 17.06
14 17.06
15 17.06
16 17.06
17 17.06
18 17.06
19 17.06
20 17.06
21 17.06
22 17.06
23 17.06
00 18.06
01 18.06
02 18.06
03 18.06
04 18.06
05 18.06
06 18.06
07 18.06
08 18.06
Ветер
(напр.,м/с)
Видим. Явления Облачность Т
(С)
Тd
(С)
f
(%)
Тe
(С)
Тes
(С)
Комфортность P
(гПа)
Po
(гПа)
Тmin
(С)
Tmax
(С)
R
(мм)
R24
(мм)
S
(см)
С 2 40 км 9/3 2000 м
[Cu med, cong Ac As Ci sp]
+20.5 +12.0 58 +23 +30 комфорт 1018.1 974.1

{2}
40 км 9/1 2000 м
[Cu med, cong Ac As Ci fib]
+21.0 +13.7 63 1017.5 973.7
В 1
{3}
40 км 9/1 1500 м
[Cu med, cong Ac As Ci sp]
+22.4 +13.2 56 +25 +36 комфорт 1016.6 973.0
ЮВ 1 30 км 8/1 1500 м
[Cb cap Ac trans Cs]
+23.8 +13.9 54 +26 +36 жарко 1015.6 972.2
ЮВ 2
{4}
40 км 8/1 1500 м
[Cu med, cong Ac trans Cs]
+24.2 +12.2 47 +26 +33 жарко 1015.0 971.7
З 1
{3}
40 км 6/1 1500 м
[Cu med, cong Ac trans Ci sp]
+24.0 +13.2 51 +26 +32 жарко 1014.8 971.5
З 1
{3}
40 км 6/1 2000 м
[Cu med, cong Ac As Ci sp]
+24.7 +11.3 43 +26 +30 жарко 1014.7 971.5
ЮВ 3 40 км осадки на расстоянии 8/1 1500 м
[Cb cap Ac As Cs]
+22.4 +13.7 58 +26 +26 жарко 1015.3 971.8
В 6
{9}
н/о н/о +18.9 +12.6 67 +19 +19 прохладно 1016.8 972.7 +25.6
ЮЗ 1
{3}
40 км 3/1 1500 м
[Cu med, cong Ac trans Ci fib]
+17.2 +13.9 81 +18 +18 прохладно 1017.4 973.0
СЗ 1
{1}
40 км 3/1 1500 м
[Cu med, cong Ac trans]
+16.1 +14.1 88 +17 +17 прохладно 1018.4 973.8
СЗ 1
{2}
н/о н/о +15.0 +13.0 88 +15 +15 прохладно 1018.9 974.1
В 1
{2}
40 км 4/1 1500 м
[Sc Ac lent Ci fib]
+14.2 +13.2 94 +14 +14 прохладно 1019.3 974.4
ЮЗ 1
{2}
40 км 3/1 1500 м
[Sc Ac lent]
+12.9 +12.3 96 +13 +13 холодно 1019.6 974.5
штиль 0
{2}
40 км 4/1 1500 м
[Sc Ac lent]
+12.4 +12.1 98 +12 +12 по сезону 1019.6 974.4
штиль 0
{2}
40 км 6/1 1500 м
[Sc Ac trans]
+12.6 +12.3 98 +12 +12 по сезону 1019.4 974.2
ЮВ 1
{2}
40 км 6/1 1500 м
[Sc Ac trans Ci fib]
+12.4 +12.2 99 +12 +12 прохладно 1019.1 973.9
В 1
{2}
50 км 6/1 1500 м
[Sc Ac lent Ci sp]
+12.1 +11.6 97 +12 +12 прохладно 1019.3 974.0
штиль 0 50 км 6/1 1500 м
[Cu Sc Ac lent Cc]
+12.5 +12.0 97 +12 +12 прохладно 1019.4 974.2
В 1
{2}
50 км 4/1 1500 м
[Cu hum Ac lent Ci fib]
+14.9 +13.1 89 +15 +17 по сезону 1019.1 974.3
С 1
{2}
50 км 3/1 1500 м
[Cu hum Ac lent Ci fib]
+16.9 +13.0 78 +18 +22 тепло 1018.8 974.3 +12.0
ЮВ 1
{2}
50 км 4/1 1500 м
[Cu hum Ac lent Ci fib]
+18.9 +14.4 75 +21 +28 комфорт 1018.5 974.3
СВ 1
{3}
50 км 5/3 1500 м
[Cu hum Ac lent Ci fib]
+20.9 +14.1 65 +25 +33 комфорт 1018.3 974.4
В 2
{4}
50 км 4/3 1500 м
[Cu hum Ac lent Ci fib]
+22.8 +14.9 61 +27 +37 душно 1017.8 974.2
В 3
{4}
50 км 4/3 1500 м
[Cu hum Ci fib]
+23.8 +14.2 55 +26 +37 жарко 1017.3 973.8
В 3 50 км 8/6 1500 м
[Cu Sc Ac cuf Ci fib]
+23.3 +14.3 57 +27 +32 душно 1017.1 973.6
В 4
{5}
50 км 9/8 1500 м
[Cu Sc Ac cuf]
+24.0 +14.1 54 +26 +28 жарко 1016.5 973.1
В 2 50 км 8/6 1500 м
[Cu Sc Ac cuf Ci fib]
+25.0 +13.5 49 +27 +32 жарко 1016.1 972.9
СВ 1 50 км 6/4 1500 м
[Cu Sc Ac cuf Ci fib]
+25.5 +15.2 53 +28 +35 жарко 1015.4 972.3
В 2
{4}
50 км 4/1 1500 м
[Cu Sc Ac cuf Ci fib]
+26.1 +14.9 50 +29 +35 жарко 1014.7 971.7
штиль 0 50 км 6/1 1500 м
[Cu Sc Ac trans Cs]
+25.8 +16.1 55 +29 +33 душно 1014.2 971.2
ЮЗ 3 50 км 8/1 1500 м
[Cu Sc Ac trans Cs]
+25.4 +14.2 50 +28 +29 жарко 1014.3 971.2
З 3
{5}
50 км 9/1 1500 м
[Cu hum Ac trans Cs]
+23.9 +14.6 56 +27 +27 жарко 1014.6 971.3 +27.1
В 1
{2}
50 км 9/1 1500 м
[Cu hum Ac trans Cs]
+20.5 +16.3 77 +25 +25 комфорт 1015.2 971.4
В 1
{1}
50 км 9/0
[Ac As Cs]
+18.8 +16.8 88 +21 +21 комфорт 1015.8 971.8
СВ 1
{2}
40 км 8/0
[Ac As Cs]
+17.7 +16.0 90 +19 +19 тепло 1016.3 972.1
СЗ 1
{2}
40 км 9/0
[Ac As Cs]
+17.5 +15.8 90 +19 +19 по сезону 1016.7 972.4
З 1
{2}
40 км 9/0
[Ac As Cs]
+17.3 +16.0 92 +18 +18 по сезону 1016.8 972.5
штиль 0
{2}
40 км 9/0
[Ac As Cs]
+17.1 +16.0 93 +17 +17 тепло 1016.7 972.3
штиль 0
{2}
40 км 9/0
[Ac As Cs]
+16.6 +15.8 95 +16 +16 тепло 1016.7 972.3
Ю 1
{2}
40 км 9/0
[Ac As Cs]
+16.6 +15.5 93 +17 +17 тепло 1016.5 972.1
В 2
{2}
30 км 9/1 1500 м
[Sc Ac As Ci sp]
+16.4 +15.8 96 +16 +16 по сезону 1016.7 972.3
штиль 0
{2}
40 км 9/1 1500 м
[Sc Ac As Cs]
+16.3 +15.3 94 +16 +16 по сезону 1017.2 972.7
ЮВ 1
{3}
40 км 8/1 1500 м
[Sc Ac As Cs]
+18.0 +16.0 88 +19 +20 тепло 1017.5 973.3
В 4
{7}
40 км 8/4 1500 м
[Cu Sc Ac trans Ci fib]
+19.6 +15.9 79 +22 +23 комфорт 1018.2 974.2 +15.9
В 5 30 км 8/4 1000 м
[Cu Sc Ac trans Ci fib]
+19.8 +15.5 76 +22 +24 комфорт 1019.2 975.2
ЮВ 4 30 км 8/5 600 м
[Cu Sc Ac trans Ci fib]
+20.1 +15.7 76 +23 +26 комфорт 1019.3 975.3
ЮВ 7
{9}
30 км 8/6 600 м
[Cu Sc Ac trans Ci fib]
+20.0 +15.0 73 +22 +23 комфорт 1019.6 975.5
ЮВ 5 30 км 9/6 600 м
[Cu Sc Ac trans Ci fib]
+21.0 +15.3 70 +24 +27 комфорт 1019.5 975.6
В 4 40 км 8/5 600 м
[Cu Sc Ac trans Ci fib]
+22.0 +15.6 67 +26 +30 душно 1018.9 975.2
ЮВ 3
{6}
30 км 8/4 600 м
[Cu Sc Ci fib]
+22.5 +15.1 63 +26 +34 жарко 1018.4 974.7
ЮВ 4
{7}
30 км 5/4 900 м
[Cu hum Ci fib]
+23.0 +14.8 60 +27 +33 душно 1017.9 974.4
В 5
{7}
30 км 3/3 900 м
[Cu hum Ac trans Ci fib]
+23.8 +15.6 60 +27 +31 жарко 1017.6 974.2
ЮВ 4
{7}
40 км 3/3 900 м
[Cu hum Ac trans Ci fib]
+23.6 +14.9 58 +26 +30 жарко 1017.5 974.1
В 4
{7}
40 км 1/1 1200 м
[Cu hum]
+23.5 +15.0 59 +26 +29 жарко 1017.5 974.0
Ю 4
{5}
40 км 1/1 1200 м
[Cu hum]
+23.2 +14.5 58 +27 +28 душно 1017.8 974.3
ЮВ 2
{4}
40 км 1/1 1200 м
[Cu hum]
+21.9 +15.3 66 +25 +26 комфорт 1018.5 974.8 +24.2
ЮВ 1
{2}
40 км 1/1 1200 м
[Cu hum]
+18.9 +15.2 79 +21 +21 комфорт 1019.5 975.3
штиль 0
{1}
40 км 1/1 1200 м
[Cu hum Ci fib]
+16.5 +14.9 90 +16 +16 холодно 1020.7 976.1
СВ 1
{2}
40 км 1/1 1200 м
[Cu hum Ci fib]
+15.9 +14.3 90 +17 +17 по сезону 1021.3 976.5
ЮВ 4
{7}
40 км 1/1 1500 м
[Cu hum Ci fib]
+16.4 +11.6 73 +16 +16 прохладно 1021.9 977.2
ЮВ 4
{7}
40 км 3/3 1200 м
[Cu hum]
+15.2 +8.7 65 +14 +14 холодно 1022.7 977.7
ЮВ 3
{5}
40 км 4/4 1200 м
[Sc]
+13.9 +7.7 66 +13 +13 по сезону 1023.7 978.5
ЮВ 1
{3}
40 км 4/4 1200 м
[Sc]
+12.1 +7.6 74 +12 +12 прохладно 1024.2 978.7
В 1
{2}
40 км 5/5 1200 м
[Sc]
+11.0 +7.9 81 +11 +11 прохладно 1024.3 978.6
ЮЗ 1
{2}
40 км 3/3 1200 м
[Sc]
+10.2 +7.6 84 +10 +10 холодно 1024.1 978.3
СЗ 1
{1}
40 км 3/3 1200 м
[Sc]
+9.5 +7.6 88 +9 +9 холодно 1024.3 978.4
В 1
{1}
50 км 3/3 1300 м
[Sc]
+12.0 +8.7 80 +12 +13 прохладно 1024.0 978.4
В 1
{2}
н/о н/о +14.5 +7.1 61 +15 +15 по сезону 1023.7 978.5 +9.2
ЮВ 2
{4}
50 км 1/1 1000 м
[Cu Sc]
+15.0 +6.3 56 +15 +22 по сезону 1023.4 978.3
В 1
{5}
50 км 1/1 1000 м
[Cu Sc]
+16.3 +7.3 55 +17 +30 опасность
простуды
1022.8 978.0
В 3
{5}
50 км 1/1 1500 м
[Cu hum]
+17.1 +8.3 56 +17 +29 опасность
простуды
1022.2 977.5
ЮВ 3
{6}
50 км 1/1 1500 м
[Cu hum]
+18.3 +8.8 54 +19 +32 опасность
простуды
1021.4 976.9
В 4
{6}
50 км 1/1 1500 м
[Cu hum]
+19.6 +8.9 50 +21 +32 комфорт 1020.6 976.4
В 4
{8}
50 км 1/1 1300 м
[Cu hum]
+20.8 +10.9 53 +23 +34 комфорт 1019.8 975.8
ЮВ 2
{5}
50 км 1/1 1300 м
[Cu hum]
+21.0 +10.8 52 +24 +38 комфорт 1018.9 975.0
В 3
{6}
50 км 1/1 1300 м
[Cu hum]
+22.1 +10.0 46 +24 +33 комфорт 1018.3 974.5
В 3
{6}
50 км 1/1 1300 м
[Cu hum]
+22.0 +10.5 48 +24 +30 комфорт 1017.8 974.1
Ю 3
{7}
50 км 1/1 1300 м
[Cu hum]
+22.3 +10.8 48 +24 +28 комфорт 1017.5 973.8
ЮВ 5
{6}
50 км 1/1 1300 м
[Cu hum]
+21.3 +10.8 51 +23 +24 комфорт 1017.5 973.7
ЮВ 3
{5}
50 км 1/1 1300 м
[Cu hum]
+20.2 +10.9 55 +22 +22 комфорт 1017.9 973.9 +22.4
ЮВ 1
{3}
50 км 1/1 1200 м
[Sc]
+17.5 +11.5 68 +19 +19 прохладно 1019.0 974.5
штиль 0
{1}
50 км 1/1 1200 м
[Sc]
+15.0 +11.4 79 +15 +15 холодно 1020.1 975.3
штиль 0
{1}
50 км 1/1 1200 м
[Sc Ci fib]
+13.1 +10.1 82 +13 +13 холодно 1020.9 975.7
штиль 0
{1}
50 км 3/1 1200 м
[Sc Ci fib]
+12.5 +10.6 88 +12 +12 холодно 1021.5 976.1
З 1
{1}
50 км ясно +10.4 +9.3 93 +10 +10 прохладно 1022.1 976.4
штиль 0
{1}
50 км ясно +9.8 +8.9 94 +9 +9 холодно 1022.1 976.3
штиль 0
{1}
50 км ясно +9.1 +8.7 97 +8 +8 холодно 1021.9 976.0
штиль 0
{1}
50 км ясно +8.4 +8.0 97 +7 +7 очень
холодно
1021.9 975.8
штиль 0
{1}
50 км ясно +8.6 +8.3 98 +8 +8 очень
холодно
1022.0 976.0
штиль 0
{1}
50 км 1/0
[Ac lent Ci fib]
+11.6 +10.3 92 +11 +13 холодно 1021.8 976.3
СЗ 1
{2}
50 км 1/0
[Ac lent Ci fib]
+14.9 +10.7 76 +15 +20 по сезону 1021.4 976.5 +8.0
СЗ 1
{2}
50 км 3/0
[Ac lent Ci]
+16.4 +10.3 67 +17 +26 по сезону 1020.9 976.2
С 1
{2}
50 км 3/0
[Ac lent Ci sp]
+19.4 +10.4 56 +22 +34 комфорт 1020.1 975.9
В 1
{4}
50 км 3/1 1500 м
[Cu hum Ac lent Ci sp]
+20.7 +10.2 51 +24 +38 комфорт 1019.6 975.6
ЮВ 2
{4}
50 км 4/1 1500 м
[Cu hum Ac lent Ci sp]
+21.6 +10.4 49 +23 +37 комфорт 1019.1 975.2
В 2
{5}
50 км 3/1 1500 м
[Cu hum Ac lent Ci sp]
+22.5 +11.0 48 +25 +40 комфорт 1018.4 974.7
СВ 2
{5}
50 км 3/1 1500 м
[Cu hum Ac lent Ci sp]
+24.0 +12.0 47 +26 +40 жарко 1017.4 974.0
В 2
{5}
50 км 3/1 1500 м
[Cu hum Ac lent Ci sp]
+25.0 +11.9 44 +27 +39 жарко 1016.8 973.5
В 2
{6}
50 км 4/1 1500 м
[Cu hum Ac lent Ci sp]
+25.4 +11.6 42 +27 +36 жарко 1016.1 972.9
ЮВ 3
{5}
50 км 8/1 1500 м
[Cu hum Ac lent Cs]
+26.2 +12.6 43 +28 +32 жарко 1015.7 972.7
ЮВ 3
{4}
50 км 8/1 1500 м
[Cu hum Ac trans Cs]
+25.9 +10.1 37 +27 +29 жарко 1015.2 972.1
В 2
{4}
40 км 8/1 1500 м
[Cu hum Ac trans Cs]
+24.8 +13.1 48 +27 +28 жарко 1015.3 972.1
ЮВ 3
{4}
40 км 8/0
[Cs]
+24.0 +12.9 50 +26 +26 жарко 1015.4 972.0 +26.3
штиль 0
{2}
40 км 5/0
[Ac lent Cs]
+20.1 +13.8 67 +22 +22 комфорт 1016.5 972.5
В 1
{1}
40 км 8/0
[Ac lent Cs]
+17.7 +14.2 80 +19 +19 прохладно 1017.3 973.0
СВ 1
{2}
40 км 6/0
[Ac lent Cs]
+17.2 +14.7 85 +18 +18 по сезону 1017.6 973.2
З 1
{1}
40 км 8/0
[Ac lent Cs]
+15.5 +13.2 86 +16 +16 прохладно 1018.0 973.4
СЗ 1
{1}
40 км 9/0
[Ac trans Cs]
+15.1 +13.0 87 +16 +16 прохладно 1018.2 973.4
штиль 0
{1}
40 км 9/0
[As trans Cs]
+14.8 +13.3 91 +14 +14 по сезону 1018.3 973.5
штиль 0
{1}
40 км 9/0
[Cs]
+14.4 +13.1 92 +14 +14 по сезону 1018.3 973.4
штиль 0
{1}
40 км 9/0
[Cs]
+13.9 +13.0 94 +13 +13 по сезону 1018.3 973.4
З 1
{1}
40 км 8/0
[Cs]
+13.5 +12.4 93 +14 +14 по сезону 1018.3 973.3
ЮВ 1
{1}
40 км 6/0
[Cs]
+13.9 +13.0 94 +14 +14 по сезону 1018.4 973.5
СЗ 3
{4}
50 км 6/0
[Cc]
+17.2 +13.5 79 +17 +18 тепло 1018.0 973.6
СВ 1
{2}
50 км 4/0
[Ci sp]
+19.6 +14.2 71 +22 +27 комфорт 1017.5 973.5 +13.3
СВ 1
{2}
50 км 4/0
[Ci sp]
+21.3 +14.9 67 +24 +33 комфорт 1017.1 973.3
СВ 1
{3}
50 км 1/1 1500 м
[Cu hum Ci sp]
+22.4 +15.7 66 +26 +39 жарко 1016.7 973.1
В 2
{4}
50 км 1/1 1500 м
[Cu hum Ac trans Ci sp]
+24.2 +15.9 60 +27 +41 жарко 1016.2 973.0
ЮВ 3
{6}
50 км 1/1 1500 м
[Cu hum Ci sp]
+25.8 +14.3 49 +28 +42 жарко 1016.0 972.9
ЮВ 4
{6}
50 км 1/1 1500 м
[Cu hum Ci fib]
+26.8 +13.2 43 +29 +40 жарко 1015.7 972.7
ЮВ 3
{7}
50 км 1/1 1500 м
[Cu hum Ac trans]
+27.1 +12.3 40 +29 +42 жарко 1015.2 972.3
ЮВ 3
{7}
50 км 1/1 1500 м
[Cu med, cong]
+28.0 +12.4 38 +29 +41 жарко 1014.7 971.9
Ю 3
{6}
50 км 3/3 1500 м
[Cu med, cong]
+28.2 +13.3 40 +30 +37 жарко 1014.3 971.6
ЮВ 4
{7}
50 км 3/3 1500 м
[Cu med, cong]
+27.4 +13.7 43 +29 +33 жарко 1014.2 971.4
В 5
{7}
50 км 3/1 1500 м
[Cu med, cong Ac trans]
+27.2 +14.9 47 +30 +32 душно 1014.1 971.3
В 4
{5}
50 км 3/1 1500 м
[Cu med, cong Ac trans]
+26.4 +13.5 45 +28 +29 жарко 1014.2 971.3
ЮВ 2
{5}
50 км 1/1 1500 м
[Cu med, cong Ac trans]
+25.3 +14.1 50 +28 +28 жарко 1014.7 971.6 +28.5
В 1
{1}
50 км 1/1 1500 м
[Sc diur, vesp Ac trans]
+21.6 +17.0 75 +26 +26 душно 1015.6 972.0
В 1
{1}
50 км 1/1 1500 м
[Sc]
+20.0 +15.6 76 +24 +24 комфорт 1016.5 972.6
В 1
{2}
50 км 1/1 1500 м
[Sc]
+18.0 +14.9 82 +19 +19 тепло 1017.3 973.1
З 1
{2}
50 км ясно +16.9 +14.7 87 +18 +18 тепло 1017.9 973.5
штиль 0
{1}
50 км ясно +15.6 +14.0 90 +15 +15 по сезону 1018.5 973.8
штиль 0
{1}
50 км ясно +15.1 +14.0 93 +15 +15 тепло 1018.6 973.8
ЮЗ 1
{1}
50 км ясно +14.6 +13.6 94 +15 +15 тепло 1018.5 973.7
штиль 0
{2}
50 км ясно +14.0 +13.4 96 +14 +14 тепло 1018.4 973.5
СЗ 1
{1}
50 км ясно +13.2 +12.3 94 +13 +13 по сезону 1018.3 973.2
В 1
{1}
50 км ясно +13.8 +13.3 97 +14 +14 тепло 1018.1 973.2
штиль 0
{1}
50 км ясно +17.1 +14.2 83 +17 +19 тепло 1017.7 973.3
СЗ 1
{2}
50 км ясно +19.0 +15.3 79 +21 +27 комфорт 1017.7 973.6 +13.0
СВ 1
{2}
50 км 1/1 1500 м
[Cu hum]
+21.0 +14.9 68 +25 +34 комфорт 1017.7 973.9
В 1
{3}
50 км 1/1 1500 м
[Cu hum]
+23.1 +16.4 66 +28 +40 душно 1017.5 974.0
В 2
{4}
50 км 1/1 1500 м
[Cu hum]
+25.2 +16.4 58 +29 +43 душно 1017.0 973.8
ЮВ 3
{6}
50 км 1/1 1500 м
[Cu hum]
+26.4 +13.5 45 +28 +42 жарко 1016.4 973.4
ЮВ 2
{6}
50 км 1/1 1500 м
[Cu hum]
+27.4 +12.2 39 +29 +46 жарко 1015.7 972.9
В 2
{6}
50 км 1/1 1500 м
[Cu hum Ci fib]
+28.0 +13.1 40 +30 +46 жарко 1015.1 972.4
ЮВ 3
{6}
50 км 3/3 1500 м
[Cu med, cong Ci fib]
+28.5 +14.0 41 +30 +40 жарко 1014.6 971.9
В 3
{6}
50 км 4/4 1500 м
[Cu med, cong Ac cuf Ci fib]
+28.8 +14.6 42 +31 +37 жарко 1014.1 971.6
ЮВ 4
{6}
50 км 4/4 1500 м
[Cu med, cong Ac cuf Ci fib]
+28.7 +14.9 43 +31 +34 жарко 1013.9 971.3
ЮВ 5 40 км 6/4 1500 м
[Cu Sc Ac cuf Ci ing]
+27.9 +14.9 45 +30 +32 жарко 1013.8 971.1
В 4 30 км слаб. ливневой дождь 9/6 1200 м
[Cu Sc Ac cuf Ci ing]
+24.1 +18.3 70 +29 +29 душно 1014.6 971.4
СЗ 4
{7}
н/о н/о +23.0 +17.2 70 +28 +28 душно 1015.8 972.3 +29.2 0.7
С 2 40 км 9/3 1200 м
[Cu Sc Ac trans Ci sp]
+21.4 +16.8 75 +25 +25 комфорт 1016.1 972.5
З 1
{2}
40 км 8/1 1500 м
[Sc Ac As]
+20.7 +16.9 79 +25 +25 комфорт 1017.0 973.2
З 2
{4}
40 км {гроза, ливн. дождь} 6/1 1500 м
[Sc Ac trans]
+20.1 +18.1 88 +24 +24 комфорт 1017.4 973.5
З 3
{4}
40 км 5/1 1500 м
[Sc Ac As]
+18.9 +17.2 90 +20 +20 тепло 1017.9 973.9
З 1
{3}
40 км 1/0
[Ac trans]
+18.6 +17.1 91 +21 +21 комфорт 1018.0 973.8
З 2
{3}
н/о н/о +17.8 +16.5 92 +18 +18 тепло 1017.8 973.5
Ю 1
{2}
н/о н/о +16.5 +15.9 96 +17 +17 тепло 1017.8 973.4
штиль 0
{2}
н/о н/о +15.7 +15.2 97 +15 +15 тепло 1017.9 973.3
З 1
{1}
40 км 1/0
[Ac trans]
+15.0 +14.5 97 +15 +15 тепло 1018.0 973.3
В 1
{1}
40 км 1/1 1300 м
[Sc Ac trans]
+14.9 +14.7 99 +15 +16 тепло 1018.1 973.4
СЗ 2
{3}
40 км 1/1 1300 м
[Sc Ac trans Ci fib]
+17.1 +16.3 95 +17 +19 тепло 1018.2 973.8
С 1
{2}
50 км 1/1 1500 м
[Cu hum Ac trans]
+19.6 +16.3 81 +23 +28 комфорт 1018.0 974.0 +14.3 0.0 0.0
штиль 0
{2}
50 км 1/1 1500 м
[Cu hum Ac trans]
+21.7 +17.1 75 +26 +36 душно 1017.7 974.0
ЮВ 1
{3}
50 км 1/1 1500 м
[Cu hum Ac trans]
+23.6 +17.1 67 +27 +40 жарко 1017.0 973.6
Местоположение метеостанции Любляна аэропорт (Словения): широта 46.22 долгота 14.48 высота над уровнем моря 385 м.
В архиве по умолчанию представлена погода в Любляна аэропорту за последнюю неделю. Архивные данные за месяц целиком и за предыдущие месяцы, начиная с января 2011 года, Вы можете получить, выбрав интересующий диапазон дат из раскрывающегося списка и нажав кнопку "Найти!".
*Определитесь, кто Вы:
Внимание! Время в таблицах - всемирное. Для получения местного времени необходимо прибавить поправку, которая равна 1 ч.
Смотрите также архив погоды в соседних городах и на ближайших метеорологических станциях:
Партнеры нашего сайта:      
Пояснения к столбцам:
  • Ветер - указаны скорость ветра в м/с - средняя за 10 мин, порывы в срок и между сроками (в фигурных скобках) и направление, откуда дует ветер: С - северный,
  • СВ - северо-восточный, В - восточный, ЮВ - юго-восточный, Ю - южный, ЮЗ - юго-западный, З - западный, СЗ - северо-западный.
  • Видимость - горизонтальная дальность видимости в метрах или километрах. При видимости от 1 до 10 км при отсутствии осадков обычно наблюдается дымка, при ухудшении видимости до 1 км и менее - туман. В сухую погоду видимость может ухудшаться дымом, пылью или мглою.
  • Явления - указаны атмосферные явления, наблюдавшиеся в срок или в последний час перед сроком; фигурными скобками обозначены явления, наблюдавшиеся между сроками (за 1-3 часа до срока); квадратными скобками обозначены град или гололедные отложения с указанием их диаметра в мм.
  • Облачность - указаны через наклонную черту общая и нижняя облачность в баллах и высота нижней границы облаков в метрах; квадратными скобками обозначены формы облаков: Ci - перистые, Cs - перисто-слоистые, Cc - перисто-кучевые, Ac - высококучевые, As - высокослоистые, Sc - слоисто-кучевые, Ns - слоисто-дождевые, Cu - кучевые, Cb - кучево-дождевые. Подробнее классификацию облаков см. в Атласе облаков (PDF).
  • T - Температура воздуха - температура, измеренная на высоте 2 м над землей.
  • Td - Температура точки росы - температура, при понижении до которой содержащийся в воздухе водяной пар достигнет насыщения.
  • f - Относительная влажность воздуха - влажноcть воздуха, измеренная на высоте 2 м над землей.
  • Te - Эффективная температура - температура, которую ощущает одетый по сезону человек в тени. Характеристика душности погоды. При расчете учитывается влияние влажности воздуха и скорости ветра на теплоощущения человека.
  • Tes - Эффективная температура на солнце - температура, которую ощущает человек, с поправкой на солнечный нагрев. Характеристика знойности погоды. Зависит от высоты солнца над горизонтом, облачности и скорости ветра. Ночью, в пасмурную погоду, а также при ветре 12 м/с и более поправка равна нулю.
  • P - Атмосферное давление - приведенное к уровню моря атмосферное давление.
  • Po - Атмосферное давление - измеренное на уровне метеостанции атмосферное давление.
  • Tmin - Минимальная температура - минимум температуры воздуха на высоте 2 м над землей.
  • Tmax - Максимальная температура - максимум температуры воздуха на высоте 2 м над землей.
  • R - Количество осадков - Количество выпавших осадков за период времени, мм. При наведении курсора мыши на число - период времени, за который выпало указанное количество осадков.
  • R24 - Количество осадков - Количество выпавших осадков за 24 часа, мм.
  • S - Снежный покров - Высота снежного покрова, см. При наведении курсора мыши на число - состояние снежного покрова и степень покрытия местности в баллах.